Terminal Aerodrome Forecast
Issued by NWS

Home | Current Version | Previous Version | Text Only | Print | Product List | Glossary On
Versions: 1 2 3 4 5 6 7 8 9 10 11 12 13 14 15 16 17 18 19 20
000
FTUS46 KSTO 212337
TAFRDD
TAF
KRDD 212337Z 2200/2224 VRB03KT P6SM FEW010 OVC017
     FM220300 17020G30KT P6SM RA OVC015
     FM221600 18015KT 6SM -RA OVC015=

USA.gov is the U.S. government's official web portal to all federal, state and local government web resources and services.